Probability
39 42 42 39 45 48 58 58 55 58 65 65 55 58 48 42 29 35 29 42 52 48 61 39 65 58 61 65 48 55 48 48 55 39 32 42 35 45 48 39 35 23 29
45 48 48 42 52 52 55 65 55 58 65 65 71 65 58 48 35 39 48 45 45 58 42 65 48 58 68 61 58 58 45 42 45 32 35 35 26 48 19 32 32 32 35
39 42 52 52 45 52 55 48 61 58 65 68 58 55 65 55 39 48 55 52 52 48 61 61 52 61 45 45 68 58 55 35 29 35 26 32 29 23 16 19 26 29 35
42 52 48 48 52 48 52 65 65 61 61 68 61 48 61 52 58 61 52 45 48 52 61 45 55 61 55 61 55 48 58 52 39 35 52 32 29 29 23 16 16 23 26
42 42 52 52 52 45 52 52 65 58 55 65 68 61 45 55 55 55 55 65 52 48 48 55 58 65 65 61 65 68 55 45 42 39 35 45 39 32 26 29 19 23 23
45 45 45 52 45 42 42 48 68 61 61 61 58 61 61 61 61 61 58 58 55 52 52 52 58 58 61 61 68 71 61 65 55 52 45 48 42 39 32 32 26 19 23
45 48 48 45 52 48 48 45 65 68 65 61 58 55 61 65 65 61 61 61 48 52 58 52 61 61 65 58 58 65 61 58 58 58 58 45 45 45 39 35 32 23 23
39 42 39 45 45 52 52 52 65 71 65 65 65 65 65 61 58 61 55 55 55 48 55 61 68 68 65 58 61 58 61 65 65 61 61 58 52 48 45 39 39 23 19
35 39 35 39 45 52 52 52 55 52 52 52 61 61 58 55 55 45 48 48 52 48 55 55 55 58 61 61 65 58 61 65 58 61 61 61 55 48 45 42 45 32 26
42 39 45 39 42 39 45 45 52 55 52 48 45 45 52 55 45 48 45 55 52 52 55 52 52 55 58 61 61 58 58 61 61 61 55 61 52 45 42 42 39 39 29
42 39 39 39 35 39 39 42 52 52 48 45 45 45 52 52 48 48 48 55 48 52 52 52 52 48 48 52 58 55 61 58 58 55 55 55 52 48 48 48 42 29 29
35 45 39 35 39 39 39 39 39 48 48 45 48 52 48 52 45 48 45 45 45 45 48 52 52 45 45 48 48 48 48 48 52 52 52 52 45 42 48 42 42 45 39
35 39 39 39 42 35 42 42 42 42 45 48 45 45 45 48 48 48 48 45 42 39 42 42 45 45 48 48 48 45 42 48 48 52 52 52 48 45 42 45 39 42 23
32 32 35 42 42 45 48 48 45 39 39 42 45 45 45 45 45 48 45 45 42 39 39 35 39 39 42 39 39 42 42 42 45 52 52 52 48 48 48 45 42 39 35
29 39 39 39 45 39 48 52 45 45 42 45 42 42 42 39 39 39 42 39 32 29 32 29 32 35 32 32 32 32 35 39 42 48 52 48 42 39 39 29 32 35 32
23 26 29 39 39 42 45 45 58 48 42 39 42 42 35 32 39 39 35 39 32 29 29 29 29 23 23 19 16 23 29 35 39 39 42 35 35 29 13 10 16 26 29
23 19 26 32 39 39 42 45 48 39 45 48 42 42 42 39 39 32 35 35 32 26 26 26 26 23 23 10 3 6 23 29 35 35 35 32 29 26 32 13 3 6 3
19 19 23 26 29 29 39 42 35 39 35 42 42 42 39 39 42 39 35 39 29 29 26 26 29 26 23 10 3 3 19 23 26 29 32 32 29 26 32 29 26 26 23
19 19 23 23 23 26 29 35 29 29 29 35 35 35 35 35 35 35 35 35 32 32 32 29 32 29 23 10 3 3 19 23 23 29 26 26 26 16 13 23 26 26 26
16 23 23 19 23 26 26 26 26 26 29 26 32 35 32 35 32 26 29 32 29 26 26 29 26 26 26 13 3 3 19 23 26 29 29 19 16 13 6 19 23 29 26
19 19 19 23 23 26 23 23 26 26 29 26 26 35 29 23 23 23 23 26 26 23 23 26 19 19 19 13 0 0 16 23 23 26 29 29 10 3 0 0 19 19 16
23 13 19 19 19 23 23 23 23 23 23 26 23 16 19 19 16 19 19 23 23 23 23 23 23 19 19 16 6 0 3 13 16 23 19 16 10 0 0 0 10 0 0
16 23 19 23 19 19 26 26 23 19 23 23 19 16 16 23 19 16 19 19 19 19 19 19 19 19 16 13 3 0 0 3 13 13 13 10 3 0 0 0 0 0 3
23 19 16 16 19 19 19 26 26 26 26 23 19 16 16 19 19 19 19 19 19 19 19 19 19 16 19 13 10 6 0 0 0 3 3 0 0 0 0 3 6 6 10
26 19 16 16 13 16 19 23 23 23 26 23 16 19 19 13 16 16 16 16 16 16 23 19 19 19 16 10 0 3 6 6 3 6 6 6 6 10 10 10 6 6 6
19 16 16 13 13 13 13 16 19 19 19 23 23 16 13 16 13 13 13 6 10 6 3 6 10 16 0 0 0 0 0 0 0 0 6 6 6 10 10 10 6 6 6
Height
5908 5906 5905 5903 5902 5901 5900 5899 5898 5897 5896 5895 5895 5894 5893 5893 5892 5892 5891 5891 5891 5891 5890 5890 5890 5890 5890 5889 5889 5889 5888 5888 5887 5887 5887 5886 5886 5885 5885 5884 5884 5883 5883
5907 5906 5904 5903 5901 5900 5899 5898 5897 5896 5895 5894 5893 5893 5892 5891 5891 5891 5890 5890 5890 5889 5889 5889 5889 5888 5888 5888 5887 5887 5886 5886 5885 5885 5884 5884 5884 5883 5883 5882 5882 5881 5880
5907 5905 5903 5902 5900 5899 5898 5897 5896 5895 5894 5893 5892 5891 5890 5890 5889 5889 5889 5888 5888 5888 5887 5887 5887 5887 5886 5886 5885 5885 5884 5884 5883 5883 5882 5882 5881 5880 5880 5880 5879 5878 5877
5906 5904 5902 5901 5899 5898 5896 5895 5894 5893 5892 5891 5890 5889 5889 5888 5887 5887 5887 5886 5886 5885 5885 5885 5885 5884 5884 5884 5883 5883 5882 5882 5881 5880 5880 5879 5878 5878 5878 5877 5876 5875 5874
5904 5902 5901 5899 5897 5896 5894 5893 5892 5890 5889 5889 5888 5887 5886 5885 5885 5885 5884 5884 5884 5883 5883 5883 5882 5882 5882 5881 5880 5880 5880 5879 5878 5878 5877 5876 5875 5875 5874 5874 5873 5872 5871
5902 5900 5899 5897 5896 5894 5893 5891 5890 5889 5887 5886 5885 5884 5883 5882 5882 5882 5882 5881 5881 5880 5880 5880 5879 5879 5879 5878 5878 5877 5877 5876 5875 5874 5874 5873 5872 5871 5871 5870 5869 5868 5867
5899 5898 5896 5895 5893 5892 5890 5889 5888 5886 5885 5884 5882 5881 5880 5880 5879 5879 5878 5878 5878 5877 5877 5877 5876 5876 5875 5875 5874 5874 5873 5872 5872 5871 5870 5869 5868 5867 5866 5866 5865 5864 5863
5897 5895 5893 5892 5890 5889 5887 5886 5885 5883 5882 5881 5880 5879 5878 5877 5876 5876 5875 5875 5875 5874 5874 5873 5872 5872 5872 5871 5871 5870 5869 5869 5868 5867 5866 5865 5864 5863 5862 5861 5860 5859 5859
5893 5892 5890 5888 5887 5885 5884 5883 5881 5880 5879 5878 5877 5875 5875 5874 5873 5872 5872 5871 5871 5870 5870 5869 5868 5867 5867 5866 5866 5865 5864 5864 5863 5862 5861 5860 5859 5858 5857 5856 5856 5855 5854
5890 5888 5886 5885 5883 5881 5880 5879 5878 5877 5876 5874 5873 5872 5871 5870 5869 5868 5868 5867 5866 5865 5865 5864 5863 5863 5862 5861 5860 5860 5859 5858 5857 5857 5856 5855 5854 5853 5852 5851 5850 5850 5849
5886 5884 5882 5881 5879 5878 5876 5875 5874 5873 5872 5870 5869 5868 5867 5866 5865 5864 5863 5862 5861 5860 5859 5859 5858 5857 5856 5856 5855 5854 5853 5852 5851 5851 5850 5849 5849 5848 5847 5846 5845 5844 5844
5881 5880 5878 5877 5875 5873 5872 5871 5869 5868 5867 5866 5865 5863 5862 5861 5860 5859 5858 5857 5856 5855 5854 5853 5853 5852 5851 5850 5849 5848 5847 5846 5845 5845 5844 5844 5843 5842 5841 5840 5840 5839 5838
5877 5875 5873 5872 5870 5869 5867 5866 5864 5863 5862 5861 5859 5858 5857 5856 5854 5853 5852 5851 5850 5850 5849 5848 5847 5846 5845 5844 5843 5842 5841 5840 5839 5839 5838 5838 5837 5836 5835 5835 5834 5833 5832
5872 5870 5868 5867 5865 5863 5862 5860 5859 5858 5856 5855 5854 5853 5851 5850 5849 5848 5846 5845 5844 5843 5843 5842 5841 5840 5839 5838 5837 5836 5835 5834 5833 5832 5831 5831 5830 5830 5829 5828 5828 5827 5826
5866 5865 5863 5861 5859 5858 5856 5855 5853 5852 5850 5849 5848 5847 5845 5844 5843 5842 5840 5839 5838 5837 5836 5835 5834 5833 5832 5831 5830 5829 5828 5827 5826 5825 5825 5824 5823 5823 5822 5821 5821 5820 5819
5861 5859 5857 5855 5854 5852 5850 5849 5847 5845 5844 5842 5841 5840 5839 5838 5836 5835 5834 5833 5831 5830 5829 5828 5827 5826 5825 5824 5823 5822 5821 5820 5819 5818 5818 5817 5816 5815 5814 5814 5813 5812 5811
5854 5853 5851 5849 5848 5846 5844 5843 5841 5839 5837 5836 5834 5833 5832 5831 5830 5829 5827 5826 5825 5823 5822 5821 5819 5818 5818 5817 5816 5814 5813 5813 5812 5811 5810 5809 5808 5808 5807 5806 5805 5804 5803
5848 5846 5845 5843 5841 5839 5838 5836 5834 5833 5831 5829 5828 5827 5826 5824 5823 5822 5820 5819 5817 5816 5814 5813 5812 5811 5810 5809 5808 5807 5806 5806 5805 5804 5803 5802 5801 5800 5799 5798 5797 5796 5795
5841 5840 5838 5836 5834 5833 5831 5829 5827 5825 5823 5822 5821 5820 5818 5817 5816 5815 5813 5811 5810 5808 5807 5805 5804 5803 5802 5801 5801 5800 5799 5798 5797 5796 5795 5794 5793 5792 5791 5790 5789 5788 5787
5834 5832 5830 5828 5827 5826 5824 5822 5820 5818 5816 5815 5813 5812 5811 5810 5809 5807 5805 5804 5802 5801 5799 5798 5796 5795 5795 5794 5793 5792 5791 5791 5790 5788 5788 5787 5786 5784 5783 5782 5781 5780 5779
5826 5825 5823 5822 5820 5818 5816 5814 5812 5811 5809 5807 5806 5805 5803 5802 5801 5799 5798 5796 5795 5793 5791 5790 5789 5788 5787 5786 5785 5784 5783 5783 5782 5781 5780 5779 5778 5777 5776 5774 5773 5772 5771
5819 5817 5816 5814 5812 5810 5808 5806 5805 5803 5801 5800 5799 5797 5796 5794 5793 5792 5790 5788 5787 5785 5783 5782 5781 5780 5779 5778 5777 5777 5776 5775 5774 5773 5772 5771 5770 5769 5768 5767 5765 5764 5763
5811 5809 5808 5806 5804 5802 5800 5799 5797 5796 5794 5793 5791 5790 5789 5787 5785 5784 5782 5780 5779 5777 5775 5774 5772 5771 5771 5770 5769 5769 5768 5767 5766 5765 5764 5763 5762 5761 5760 5759 5757 5756 5754
5803 5801 5799 5798 5796 5794 5793 5792 5790 5788 5787 5785 5784 5782 5781 5780 5778 5776 5775 5773 5771 5769 5767 5766 5764 5763 5762 5761 5760 5760 5760 5759 5758 5757 5756 5755 5754 5753 5752 5751 5749 5748 5746
5794 5793 5791 5789 5788 5786 5785 5784 5783 5781 5780 5778 5777 5775 5774 5772 5771 5769 5767 5765 5763 5761 5759 5758 5756 5755 5754 5753 5752 5751 5751 5751 5750 5749 5748 5747 5746 5745 5744 5742 5741 5740 5738
5786 5784 5783 5781 5780 5778 5777 5776 5775 5774 5773 5771 5770 5768 5766 5765 5763 5761 5760 5758 5756 5754 5752 5750 5749 5747 5747 5746 5745 5744 5743 5743 5742 5741 5740 5739 5737 5736 5735 5734 5733 5732 5730
Wind_Speed
6 6 5 5 6 6 6 5 5 5 5 5 5 5 5 5 5 4 4 5 5 5 5 5 5 6 6 6 6 7 8 9 10 10 10 11 10 10 10 10 11 11 11
7 6 6 7 7 7 7 6 6 6 6 6 6 6 6 6 6 6 6 6 6 6 6 6 6 6 6 6 6 7 8 9 10 10 11 11 11 12 12 12 12 12 13
8 7 7 8 8 8 8 8 8 8 8 8 8 8 8 8 8 8 8 8 7 7 7 7 7 7 7 8 8 8 9 9 10 10 10 11 12 12 12 12 13 13 14
9 8 8 9 9 9 9 9 9 9 9 9 10 9 9 9 9 9 9 8 8 8 8 8 8 9 9 9 9 10 10 10 11 11 11 11 12 12 13 13 14 15 15
9 9 10 10 10 10 10 10 9 9 9 10 11 11 11 11 10 10 10 9 9 9 9 9 10 10 10 11 11 11 11 12 12 12 12 13 13 13 14 14 14 15 16
11 10 11 11 12 12 11 10 10 10 10 11 11 11 11 11 11 10 10 10 10 11 11 11 11 11 11 12 13 13 13 13 13 13 14 14 15 15 15 16 16 16 16
11 11 12 12 12 12 12 11 11 11 12 12 12 12 12 12 11 11 11 11 11 11 12 12 12 13 13 14 14 15 15 15 15 16 16 16 17 17 17 17 17 18 17
13 13 13 13 13 13 13 12 12 12 12 13 13 13 13 13 12 12 13 13 13 13 13 14 14 15 15 16 16 17 17 17 17 17 18 18 18 19 19 18 18 18 18
14 14 14 14 14 14 14 14 14 14 13 14 14 14 14 13 13 14 14 14 15 15 15 16 16 16 17 18 19 19 19 19 18 19 19 19 19 19 19 19 19 18 18
16 16 15 15 14 14 15 15 15 14 14 14 15 14 15 14 14 15 15 15 16 16 17 17 17 18 19 20 20 21 21 21 21 20 20 20 20 19 19 19 19 19 20
16 17 17 17 16 16 15 15 15 15 15 15 16 16 16 16 16 16 17 17 17 17 18 18 18 19 19 20 21 21 21 22 22 22 21 21 20 20 20 20 20 20 20
17 17 17 17 17 17 16 16 16 16 16 16 16 17 17 18 18 18 19 19 19 19 19 19 20 20 21 21 21 22 22 22 22 21 21 21 21 21 21 21 21 21 22
18 18 18 18 18 18 17 17 17 18 18 17 17 17 18 18 18 19 20 20 21 21 20 20 21 21 22 22 23 23 22 22 22 22 22 22 23 23 22 22 23 23 23
19 19 19 19 18 18 18 18 18 19 19 19 18 19 18 18 18 19 20 20 21 21 21 22 22 22 22 23 23 23 23 23 22 23 23 23 24 24 24 23 24 24 24
20 20 20 20 19 19 19 19 20 21 20 20 20 19 19 19 20 20 20 21 21 21 22 23 23 24 24 24 23 24 24 24 23 24 24 24 25 25 25 25 25 25 25
20 20 21 21 21 21 21 21 21 21 21 21 21 21 21 20 21 21 22 22 22 22 23 24 24 24 24 24 24 24 24 24 24 25 25 25 26 26 26 26 26 26 27
21 21 22 22 22 22 22 22 22 22 23 23 23 22 22 21 21 22 22 23 23 24 24 24 24 25 25 25 25 25 25 24 24 25 26 26 27 27 27 27 27 27 28
22 22 22 23 23 23 23 23 23 23 24 23 23 23 22 22 22 22 23 23 24 24 25 25 25 25 26 26 26 26 26 26 25 25 26 26 27 27 27 27 27 28 28
23 23 24 24 24 24 23 23 24 24 24 24 24 23 23 23 23 24 24 24 24 25 25 26 26 26 25 25 25 25 25 25 25 25 25 26 27 27 28 28 28 28 29
24 25 25 24 24 24 24 24 24 24 24 25 24 24 24 25 25 25 25 26 26 25 26 26 26 25 25 25 25 25 25 25 25 25 25 26 27 27 26 27 27 28 29
25 25 25 25 25 25 25 25 25 24 24 24 24 25 25 25 25 26 26 26 26 26 26 26 26 26 25 25 25 25 25 25 25 25 26 26 26 26 25 25 26 26 27
25 26 26 25 25 25 25 26 25 24 24 24 25 25 25 25 25 26 27 26 27 27 26 26 27 27 26 27 27 27 26 26 26 26 26 26 27 27 26 26 26 27 28
26 26 26 26 27 27 26 26 25 24 25 25 25 25 25 24 25 25 26 26 26 26 26 26 26 27 28 28 28 28 27 27 27 27 27 26 27 27 27 27 27 28 28
26 27 26 27 27 27 26 26 25 24 24 24 24 25 25 25 26 26 26 26 26 27 27 27 27 27 27 27 27 28 28 28 28 27 27 27 27 28 28 28 28 28 28
27 28 28 27 26 26 26 25 25 23 23 23 23 24 24 24 25 25 25 26 26 26 26 26 27 26 26 26 26 27 27 27 27 28 28 28 28 28 28 27 27 27 26
27 27 27 27 26 26 26 25 25 24 23 23 23 24 24 25 24 25 25 26 26 25 26 26 26 26 26 26 25 26 26 27 27 27 27 28 28 28 27 27 26 26 26
Wind_Direction
337 333 324 318 314 312 309 311 307 299 288 285 286 288 284 283 281 273 266 269 267 269 271 270 270 272 275 276 274 267 263 264 264 263 265 266 266 267 267 272 274 275 271
337 330 321 319 317 312 308 306 305 301 294 285 283 283 280 282 279 274 272 273 271 269 269 268 271 274 276 277 280 280 277 273 271 268 267 269 271 268 267 271 274 275 274
329 324 322 318 314 312 305 299 300 296 293 289 285 278 273 274 273 273 273 275 272 269 266 270 271 273 277 278 281 282 285 284 279 275 272 272 272 270 271 273 276 277 277
323 316 316 313 307 306 304 300 298 296 288 285 284 278 273 272 270 271 272 273 268 263 265 266 270 273 276 277 278 281 283 284 284 280 278 278 276 273 273 276 278 280 281
314 308 307 308 307 305 302 296 295 295 290 284 282 277 274 269 270 271 270 270 269 268 268 267 271 275 277 278 278 279 281 282 284 283 280 278 278 279 277 280 283 283 282
308 303 301 302 303 304 301 297 294 294 293 291 288 281 278 269 269 268 268 269 269 269 269 270 272 275 276 278 279 279 280 282 283 283 283 282 281 281 281 282 282 284 283
309 304 301 302 300 299 298 295 292 292 293 293 292 286 279 274 276 271 267 270 272 271 271 271 274 274 275 277 278 279 278 279 281 282 282 282 281 282 281 282 282 282 281
306 305 304 303 299 296 294 292 291 290 290 290 290 286 283 279 278 276 275 274 273 273 275 276 276 276 276 276 277 277 278 279 281 282 283 283 282 283 282 282 283 282 280
304 304 304 303 299 294 291 288 288 288 289 291 291 288 284 282 281 277 276 277 276 275 274 276 276 276 277 277 277 278 278 279 280 282 283 283 284 283 284 283 281 280 280
300 302 302 300 296 293 290 288 289 289 289 290 289 286 283 281 279 279 278 279 279 277 275 274 277 277 278 279 279 278 276 277 278 280 281 284 283 283 283 281 279 278 278
297 298 298 297 295 292 290 289 287 291 291 290 288 285 282 281 279 279 281 281 280 278 277 276 276 278 279 280 280 280 279 278 278 278 278 280 280 281 281 283 281 279 279
295 296 295 295 295 293 291 289 286 287 288 288 289 287 283 281 280 279 279 280 279 279 280 279 278 278 279 280 281 281 280 280 278 277 276 278 277 277 280 281 281 281 281
292 294 293 292 293 292 291 289 286 286 287 288 287 288 285 281 280 280 278 277 278 279 280 279 279 279 280 280 281 282 281 279 278 277 277 277 277 277 278 279 280 281 281
289 291 292 293 293 290 289 288 286 285 286 285 285 285 284 282 281 282 281 279 279 279 279 279 279 280 281 281 281 281 281 279 278 277 277 277 278 277 278 279 280 280 280
287 288 289 291 291 289 288 288 287 287 287 284 282 283 281 280 281 282 283 282 281 281 280 280 279 280 280 280 281 279 278 278 277 277 277 278 279 279 277 278 279 279 280
285 287 288 290 288 286 285 287 287 287 287 284 281 281 282 281 280 281 283 283 282 282 282 282 279 279 279 279 280 278 277 278 278 279 279 279 279 278 277 278 277 278 279
284 286 287 288 287 285 284 284 283 285 286 284 281 279 281 280 279 279 281 282 282 282 281 282 281 279 279 279 279 279 277 277 279 280 280 279 278 278 277 278 278 279 280
284 284 286 287 287 286 284 284 283 284 284 283 282 280 279 280 279 280 281 282 282 282 282 282 281 280 279 278 277 277 278 278 279 280 281 281 281 281 280 279 278 279 280
283 283 284 285 286 286 285 285 283 284 283 283 282 280 279 277 277 279 281 282 283 282 283 283 281 279 278 276 276 277 277 277 280 281 282 283 283 282 280 280 280 279 280
284 283 283 284 285 286 286 284 282 283 283 282 280 279 277 277 277 279 279 280 281 282 283 282 280 279 277 275 275 277 278 278 280 281 281 283 284 284 281 281 282 281 281
281 281 282 283 284 285 284 283 283 284 283 282 281 279 278 278 278 278 279 280 281 280 281 280 278 277 276 275 276 277 277 278 280 281 281 282 284 283 282 283 283 283 281
279 280 280 281 283 284 284 285 284 283 282 282 281 279 279 279 279 279 279 280 280 281 281 281 278 276 275 274 275 276 278 279 280 281 283 283 284 282 282 282 282 283 283
277 278 280 282 284 285 284 284 284 283 281 280 281 280 279 281 282 282 281 280 280 280 282 283 281 278 276 275 274 275 276 276 278 280 283 282 284 284 282 283 283 284 285
275 277 278 281 284 284 282 282 281 280 281 282 281 280 279 280 282 281 281 282 282 281 282 283 283 281 278 276 274 274 274 275 277 279 281 282 283 283 284 284 284 285 284
274 277 279 281 281 281 280 280 280 279 280 282 283 282 282 283 283 282 284 286 285 285 284 282 281 280 278 275 275 274 274 275 278 281 283 283 284 284 284 284 285 286 285
274 275 278 279 279 279 277 277 278 278 280 281 282 283 283 283 284 284 287 288 286 285 284 283 281 279 278 277 277 277 277 278 280 282 283 284 285 284 283 285 285 286 287